{"data":{"norad_id":55861,"intl_designator":"2023-034A","name":"SHIYAN-19 (SY-19)","alt_names":[],"object_type":"PAYLOAD","status":"ACTIVE","operator":null,"country":"PRC","launch_date":"2023-03-15","launch_site_code":"JSC","launch_vehicle":null,"mission":null,"orbit_class":"UNKNOWN","rcs_meters":null,"size_class":null,"mass_kg":null,"dimensions":null,"purposes":[],"wikipedia_slug":null,"has_3d_model":false,"image_url":null,"decayed_at":null,"tle_current":{"epoch":"2026-05-25T05:18:46.195200Z","epoch_age_seconds":46176,"freshness":"FRESH","line1":"1 55861U 23034A   26145.22136800  .00018990  00000+0  27728-3 0  9992","line2":"2 55861  97.3962   0.7797 0007051  79.0154 281.1893 15.55677949178996","mean_motion":15.55677949,"eccentricity":0.0007051,"inclination_deg":97.3962,"raan_deg":0.7797,"arg_perigee_deg":79.0154,"mean_anomaly_deg":281.1893,"bstar":0.00027728,"rev_number":17899,"period_min":92.564145485616,"perigee_km":395.40323784182,"apogee_km":404.96202418547,"semimajor_km":6778.3196310136,"source":"CELESTRAK","updated_at":"2026-05-25T13:37:59.211886Z"}}}